Torna al catalogo

IRIDIUM 914

AttivoComunicazioniPO
NORAD 24836·PAYLOAD·🇺🇸 United States

Lanciato Jun 18, 1997 da Baikonur Cosmodrome

Loading…

Prossimi Passaggi (prossime 24 ore)

TLE

AggiornatoSource: Space-Track

Epoca: Sep 14, 2026, 13:12 UTC

1 24836U 97030A   26257.55046742  .00000282  00000-0  81171-4 0  9991
2 24836  86.3993 350.1948 0003201 119.6652 240.4866 14.41285786672561

Traccia IRIDIUM 914 in tempo reale con AllMySat

Download on the App Store